Location: Peterborough
(44.3091°N, 78.3197°W)
Time: 04:12:59
(UTC-04:00)

Tiros 1 despin weight - Pass Details

Date: 30 March 2023
Orbit: 586 x 632 km, 48.2° (Epoch: 08 June)

Event Time Altitude Azimuth Distance (km) Brightness Sun altitude
Rises 19:39:59 0° 223° (SW) 2,799 ? -1.2°
Reaches altitude 10° 19:42:21 10° 216° (SW) 1,900 ? -1.6°
Maximum altitude 19:46:26 42° 146° (SE) 844 ? -2.3°
Drops below altitude 10° 19:50:34 10° 76° (ENE) 1,911 ? -3.1°
Enters shadow 19:52:47 - 69° (ENE) 2,761 ? -3.5°
Sets 19:52:56 0° 69° (ENE) 2,819 - -3.5°
